Time,TemperatureF,DewpointF,PressureIn,WindDirection,WindDirectionDegrees,WindSpeedMPH,WindSpeedGustMPH,Humidity,HourlyPrecipIn,Conditions,Clouds,dailyrainin,SolarRadiationWatts/m^2,SoftwareType,DateUTC
2013-01-31 00:03:00,36.0,34.0,-100.00,West,263,16.0,35.0,91,0.03,,,1.44,0.000000,,2013-01-31 05:03:00,
2013-01-31 00:42:00,34.0,31.0,-100.00,WSW,257,10.0,31.0,90,0.01,,,1.45,0.000000,,2013-01-31 05:42:00,
2013-01-31 00:52:00,34.0,31.0,-100.00,WSW,257,10.0,31.0,90,0.01,,,1.45,0.000000,,2013-01-31 05:52:00,
2013-01-31 01:01:00,34.0,31.0,-100.00,WSW,257,10.0,31.0,90,0.01,,,1.45,0.000000,,2013-01-31 06:01:00,
2013-01-31 09:03:00,26.0,21.0,-100.00,WSW,255,10.0,23.0,82,0.00,,,1.11,2.000000,,2013-01-31 14:03:00,
2013-01-31 09:32:00,26.0,22.0,-100.00,WSW,241,9.0,26.0,84,0.00,,,1.00,50.000000,,2013-01-31 14:32:00,
2013-01-31 09:42:00,26.0,22.0,-100.00,WSW,241,9.0,26.0,84,0.00,,,1.00,50.000000,,2013-01-31 14:42:00,
2013-01-31 09:52:00,26.0,22.0,-100.00,WSW,241,9.0,26.0,84,0.00,,,1.00,50.000000,,2013-01-31 14:52:00,
2013-01-31 10:03:00,26.0,22.0,-100.00,WSW,241,9.0,26.0,84,0.00,,,1.00,50.000000,,2013-01-31 15:03:00,
2013-01-31 10:32:00,25.0,23.0,-100.00,West,264,14.0,27.0,91,0.00,,,0.90,44.000000,,2013-01-31 15:32:00,
2013-01-31 10:42:00,25.0,23.0,-100.00,West,264,14.0,27.0,91,0.00,,,0.90,44.000000,,2013-01-31 15:42:00,
2013-01-31 10:52:00,25.0,23.0,-100.00,West,264,14.0,27.0,91,0.00,,,0.90,44.000000,,2013-01-31 15:52:00,
2013-01-31 11:04:00,25.0,23.0,-100.00,West,264,14.0,27.0,91,0.00,,,0.90,44.000000,,2013-01-31 16:04:00,
2013-01-31 11:33:00,28.0,24.0,-100.00,WSW,256,9.0,29.0,83,0.00,,,0.84,100.000000,,2013-01-31 16:33:00,
2013-01-31 11:42:00,28.0,24.0,-100.00,WSW,256,9.0,29.0,83,0.00,,,0.84,100.000000,,2013-01-31 16:42:00,
2013-01-31 11:52:00,28.0,24.0,-100.00,WSW,256,9.0,29.0,83,0.00,,,0.84,100.000000,,2013-01-31 16:52:00,
2013-01-31 12:03:00,28.0,24.0,-100.00,WSW,256,9.0,29.0,83,0.00,,,0.84,100.000000,,2013-01-31 17:03:00,
2013-01-31 12:32:00,28.0,23.0,-100.00,West,259,12.0,23.0,80,0.01,,,0.74,113.000000,,2013-01-31 17:32:00,
2013-01-31 12:44:00,28.0,23.0,-100.00,West,259,12.0,23.0,80,0.01,,,0.74,113.000000,,2013-01-31 17:44:00,
2013-01-31 12:53:00,28.0,23.0,-100.00,West,259,12.0,23.0,80,0.01,,,0.74,113.000000,,2013-01-31 17:53:00,
2013-01-31 13:03:00,28.0,23.0,-100.00,West,259,12.0,23.0,80,0.01,,,0.74,113.000000,,2013-01-31 18:03:00,
2013-01-31 13:32:00,29.0,23.0,-100.00,WSW,253,11.0,26.0,77,0.00,,,0.54,98.000000,,2013-01-31 18:32:00,
2013-01-31 13:43:00,29.0,23.0,-100.00,WSW,253,11.0,26.0,77,0.00,,,0.54,98.000000,,2013-01-31 18:43:00,
2013-01-31 13:52:00,29.0,23.0,-100.00,WSW,253,11.0,26.0,77,0.00,,,0.54,98.000000,,2013-01-31 18:52:00,
2013-01-31 14:03:00,29.0,23.0,-100.00,WSW,253,11.0,26.0,77,0.00,,,0.54,98.000000,,2013-01-31 19:03:00,
2013-01-31 14:33:00,31.0,21.0,-100.00,WSW,250,10.0,23.0,66,0.01,,,0.35,139.000000,,2013-01-31 19:33:00,
2013-01-31 14:43:00,31.0,21.0,-100.00,WSW,250,10.0,23.0,66,0.01,,,0.35,139.000000,,2013-01-31 19:43:00,
2013-01-31 14:52:00,31.0,21.0,-100.00,WSW,250,10.0,23.0,66,0.01,,,0.35,139.000000,,2013-01-31 19:52:00,
2013-01-31 15:03:00,31.0,21.0,-100.00,WSW,250,10.0,23.0,66,0.01,,,0.35,139.000000,,2013-01-31 20:03:00,
2013-01-31 16:32:00,32.0,19.0,-100.00,WSW,253,12.0,25.0,57,-99.99,,,0.20,136.000000,,2013-01-31 21:32:00,
2013-01-31 16:42:00,32.0,19.0,-100.00,WSW,253,12.0,25.0,57,-99.99,,,0.20,136.000000,,2013-01-31 21:42:00,
2013-01-31 16:52:00,32.0,19.0,-100.00,WSW,253,12.0,25.0,57,-99.99,,,0.20,136.000000,,2013-01-31 21:52:00,
2013-01-31 17:03:00,32.0,19.0,-100.00,WSW,253,12.0,25.0,57,-99.99,,,0.20,136.000000,,2013-01-31 22:03:00,
2013-01-31 17:33:00,32.0,20.0,-100.00,WSW,245,9.0,22.0,61,0.00,,,0.20,108.000000,,2013-01-31 22:33:00,
2013-01-31 17:42:00,32.0,20.0,-100.00,WSW,245,9.0,22.0,61,0.00,,,0.20,108.000000,,2013-01-31 22:42:00,
2013-01-31 17:52:00,32.0,20.0,-100.00,WSW,245,9.0,22.0,61,0.00,,,0.20,108.000000,,2013-01-31 22:52:00,
2013-01-31 18:03:00,32.0,20.0,-100.00,WSW,245,9.0,22.0,61,0.00,,,0.20,108.000000,,2013-01-31 23:03:00,
2013-01-31 18:32:00,31.0,21.0,-100.00,WSW,241,6.0,15.0,65,0.00,,,0.20,17.000000,,2013-01-31 23:32:00,
2013-01-31 18:42:00,31.0,21.0,-100.00,WSW,241,6.0,15.0,65,0.00,,,0.20,17.000000,,2013-01-31 23:42:00,
2013-01-31 18:52:00,31.0,21.0,-100.00,WSW,241,6.0,15.0,65,0.00,,,0.20,17.000000,,2013-01-31 23:52:00,
2013-01-31 19:02:00,31.0,21.0,-100.00,WSW,241,6.0,15.0,65,0.00,,,0.20,17.000000,,2013-02-01 00:02:00,
2013-01-31 19:32:00,32.0,22.0,-100.00,WSW,237,7.0,11.0,66,0.00,,,0.20,0.000000,,2013-02-01 00:32:00,
2013-01-31 19:42:00,32.0,22.0,-100.00,WSW,237,7.0,11.0,66,0.00,,,0.20,0.000000,,2013-02-01 00:42:00,
2013-01-31 19:52:00,32.0,22.0,-100.00,WSW,237,7.0,11.0,66,0.00,,,0.20,0.000000,,2013-02-01 00:52:00,
2013-01-31 20:01:00,32.0,22.0,-100.00,WSW,237,7.0,11.0,66,0.00,,,0.20,0.000000,,2013-02-01 01:01:00,
2013-01-31 20:32:00,33.0,23.0,-100.00,WSW,240,11.0,20.0,66,0.00,,,-99.99,0.000000,,2013-02-01 01:32:00,
2013-01-31 20:42:00,33.0,23.0,-100.00,WSW,240,11.0,20.0,66,0.00,,,-99.99,0.000000,,2013-02-01 01:42:00,
2013-01-31 20:52:00,33.0,23.0,-100.00,WSW,240,11.0,20.0,66,0.00,,,-99.99,0.000000,,2013-02-01 01:52:00,
2013-01-31 21:02:00,33.0,23.0,-100.00,WSW,240,11.0,20.0,66,0.00,,,-99.99,0.000000,,2013-02-01 02:02:00,
2013-01-31 21:32:00,33.0,24.0,-100.00,WSW,243,12.0,30.0,68,0.00,,,0.11,0.000000,,2013-02-01 02:32:00,
2013-01-31 21:42:00,33.0,24.0,-100.00,WSW,243,12.0,30.0,68,0.00,,,0.11,0.000000,,2013-02-01 02:42:00,
2013-01-31 21:52:00,33.0,24.0,-100.00,WSW,243,12.0,30.0,68,0.00,,,0.11,0.000000,,2013-02-01 02:52:00,
2013-01-31 22:02:00,33.0,24.0,-100.00,WSW,243,12.0,30.0,68,0.00,,,0.11,0.000000,,2013-02-01 03:02:00,
2013-01-31 22:33:00,31.0,28.0,-100.00,SW,224,7.0,22.0,90,0.00,,,0.06,0.000000,,2013-02-01 03:33:00,
2013-01-31 22:42:00,31.0,28.0,-100.00,SW,224,7.0,22.0,90,0.00,,,0.06,0.000000,,2013-02-01 03:42:00,
2013-01-31 22:52:00,31.0,28.0,-100.00,SW,224,7.0,22.0,90,0.00,,,0.06,0.000000,,2013-02-01 03:52:00,
2013-01-31 23:02:00,31.0,28.0,-100.00,SW,224,7.0,22.0,90,0.00,,,0.06,0.000000,,2013-02-01 04:02:00,
2013-01-31 23:32:00,31.0,30.0,-100.00,SW,225,8.0,16.0,96,0.00,,,0.03,0.000000,,2013-02-01 04:32:00,
2013-01-31 23:42:00,31.0,30.0,-100.00,SW,225,8.0,16.0,96,0.00,,,0.03,0.000000,,2013-02-01 04:42:00,
2013-01-31 23:52:00,31.0,30.0,-100.00,SW,225,8.0,16.0,96,0.00,,,0.03,0.000000,,2013-02-01 04:52:00,